Find Starlink 32664

NORAD ID: 62204 Int'l Des: 2024-229 Owner: SPXS Country: US Constellation: starlink operational
LEOCIRCULAR

实时位置

正在加载3D地球...

关于 Starlink 32664

正在加载描述...

即将过境

Passes for default location (London). Set your location on the main map for personalized predictions.

高度历史

Loading altitude history...

两行轨道根数

1 62204U 24229N 26121.56652147 .00123354 00000-0 24671-2 0 9991
2 62204 42.9967 326.4228 0018366 275.4804 84.3959 15.45455434 78715
Epoch: May 1, 2026 • Age: 6 hours

当前状态

高度 431.3 km
速度 7.65 km/s
星下点 12.42°N, 179.46°W
发射日期 Dec 4, 2024
运行时间 1.4 years
类型 internet

技术详情

分类 Payload
质量 730.00 kg
干质量 700.00 kg
总质量 730.00 kg
长度 0.30 m
直径 4.10 m
跨度 29.00 m
形状 Box + pan
制造商 SPXS
平台类型 Starlink V2M
阶段状态 In Orbit
所有者/国家 SPXS/US

Most Searched